Weather History for Lawrenceville, IL

Change the Weather History Date:

Friday, January 4, 2013

  Actual Average Record
Temperature  
Mean Temperature 24 °F 31 °F  
Max Temperature 34 °F 39 °F 66 °F (1997)
Min Temperature 14 °F 23 °F 0 °F (1999)
Degree Days  
Heating Degree Days 41 34  
Month to date heating degree days 181 136  
Since 1 July heating degree days 2003 1935  
Cooling Degree Days 0 0  
Month to date cooling degree days 0 0  
Year to date cooling degree days 0 0  
Moisture  
Dew Point 17 °F    
Average Humidity 76    
Maximum Humidity 92    
Minimum Humidity 59    
Precipitation  
Precipitation 0.00 in 0.10 in 1.90 in (2004)
Month to date precipitation 0.03 0.38  
Year to date precipitation 0.03 0.38  
Sea Level Pressure  
Sea Level Pressure 30.41 in    
Wind  
Wind Speed 6 mph (SW)    
Max Wind Speed 15 mph    
Max Gust Speed 21 mph    
Visibility 4 miles    
Events Fog    
T = Trace of Precipitation, MM = Missing Value Source: NWS Daily Summary

Daily Weather History Graph

Daily Weather History Graph

Search for Another Location

Airport:

Trip Planner

Search our weather history database for the weather conditions in past years. The results will help you decide how hot, cold, wet, or windy it might be!

Date:

Astronomy

Jan. 04, 2013 Rise Set
Actual Time 7:08 AM CST 4:42 PM CST
Civil Twilight 6:39 AM CST 5:12 PM CST
Nautical Twilight 6:06 AM CST 5:45 PM CST
Astronomical Twilight 5:33 AM CST 6:17 PM CST
Moon No Moon Rise 10:56 AM CST (1/4)
Length of Visible Light 10h 32m
Length of Day
9h 33m
Waning Gibbous, 55% of the Moon is Illuminated
Jan 4
Waning Gibbous
Jan 4
Last Quarter
Jan 11
New
Jan 18
First Quarter
Jan 26
Full

Hourly Weather History & Observations

Time (CST) Temp. Windchill Dew Point Humidity Pressure Visibility Wind Dir Wind Speed Gust Speed Precip Events Conditions
12:53 AM 28.0 °F 21.7 °F 23.0 °F 81% 30.38 in 6.0 mi SW 5.8 mph - N/A   Haze
1:53 AM 30.9 °F 24.3 °F 23.0 °F 72% 30.39 in 8.0 mi WSW 6.9 mph - N/A   Overcast
2:53 AM 24.1 °F 16.0 °F 18.0 °F 77% 30.38 in 7.0 mi SSW 6.9 mph - N/A   Clear
3:53 AM 21.0 °F 13.4 °F 17.1 °F 85% 30.38 in 6.0 mi SSW 5.8 mph - N/A   Clear
5:53 AM 17.1 °F 10.0 °F 14.0 °F 88% 30.40 in 4.0 mi SW 4.6 mph - N/A   Clear
7:17 AM 21.2 °F 12.6 °F 17.6 °F 86% 30.40 in 2.5 mi West 6.9 mph - N/A   Clear
7:27 AM 21.2 °F 14.9 °F 17.6 °F 86% 30.40 in 3.0 mi West 4.6 mph - N/A   Partly Cloudy
7:48 AM 15.8 °F 8.6 °F 14.0 °F 93% 30.41 in 0.8 mi SW 4.6 mph - N/A   Clear
7:53 AM 16.0 °F 8.8 °F 14.0 °F 92% 30.43 in 0.5 mi SW 4.6 mph - N/A Fog Light Freezing Fog
8:07 AM 15.8 °F 10.2 °F 14.0 °F 93% 30.41 in 1.2 mi SW 3.5 mph - N/A   Clear
8:18 AM 15.8 °F 8.6 °F 15.8 °F 100% 30.41 in 0.2 mi South 4.6 mph - N/A Fog Light Freezing Fog
8:24 AM 15.8 °F 7.2 °F 14.0 °F 93% 30.41 in 0.2 mi South 5.8 mph - N/A Fog Light Freezing Fog
8:47 AM 15.8 °F 7.2 °F 15.8 °F 100% 30.41 in 1.2 mi SSW 5.8 mph - N/A   Partly Cloudy
8:53 AM 17.1 °F 8.7 °F 16.0 °F 96% 30.44 in 1.8 mi SSW 5.8 mph - N/A   Clear
9:10 AM 19.4 °F 10.4 °F 17.6 °F 93% 30.43 in 2.5 mi SSW 6.9 mph - N/A   Clear
9:21 AM 21.2 °F 13.6 °F 19.4 °F 93% 30.43 in 3.0 mi SSW 5.8 mph - N/A   Clear
9:53 AM 27.0 °F 18.7 °F 19.9 °F 75% 30.46 in 5.0 mi West 8.1 mph - N/A   Haze
10:53 AM 30.0 °F 20.5 °F 19.0 °F 64% 30.46 in 7.0 mi WNW 11.5 mph - N/A   Clear
11:53 AM 32.0 °F 25.6 °F 19.9 °F 61% 30.44 in 9.0 mi WNW 6.9 mph - N/A   Clear
12:53 PM 33.1 °F 27.7 °F 21.0 °F 61% 30.41 in 9.0 mi West 5.8 mph - N/A   Clear
1:53 PM 34.0 °F 28.8 °F 21.9 °F 61% 30.40 in 8.0 mi Variable 5.8 mph - N/A   Clear
2:53 PM 32.0 °F 26.4 °F 23.0 °F 69% 30.40 in 6.0 mi SSW 5.8 mph - N/A   Haze
3:53 PM 30.0 °F 22.4 °F 21.9 °F 72% 30.40 in 6.0 mi SSW 8.1 mph - N/A   Haze
4:53 PM 27.0 °F 18.7 °F 19.9 °F 75% 30.40 in 5.0 mi SSW 8.1 mph - N/A   Haze
5:53 PM 21.9 °F 13.4 °F 17.1 °F 82% 30.40 in 6.0 mi SSW 6.9 mph - N/A   Haze
6:53 PM 21.0 °F 14.6 °F 16.0 °F 81% 30.41 in 5.0 mi South 4.6 mph - N/A   Haze
7:53 PM 18.0 °F 11.1 °F 14.0 °F 84% 30.39 in 3.0 mi SSE 4.6 mph - N/A   Clear
8:53 PM 18.0 °F 7.7 °F 15.1 °F 88% 30.39 in 5.0 mi SSW 8.1 mph - N/A   Clear
9:53 PM 18.0 °F 11.1 °F 15.1 °F 88% 30.39 in 4.0 mi SSW 4.6 mph - N/A   Clear
10:53 PM 15.1 °F 6.4 °F 12.9 °F 91% 30.40 in 3.0 mi South 5.8 mph - N/A   Clear
11:53 PM 17.1 °F 8.7 °F 14.0 °F 88% 30.38 in 2.5 mi South 5.8 mph - N/A   Clear